[[{"header":{"parameterUnit":"m.s-1","parameterCategory":1,"la1":30.2992,"la2":30.254,"lo1":-89.0895,"lo2":-89.0443,"dy":0.0025,"dx":0.0025,"nx":19,"ny":19,"refTime":"2026-05-15T09:00:00:Z","depth":0,"parameterNumber":2,"parameterNumberName":"U-component_of_WINDS"},"data":[0,0,0,-2.6417,-2.6419,-2.6482,-2.6483,-2.6577,-2.6578,0,0,0,0,0,0,0,0,0,0,0,-2.6407,-2.6407,-2.6417,-2.6419,-2.6482,-2.6483,-2.6577,-2.6578,0,0,0,0,0,0,0,0,0,0,0,-2.6406,-2.6407,-2.6408,-2.6419,-2.6482,-2.6483,-2.6577,-2.6524,0,0,0,0,0,0,0,0,0,0,-2.646,-2.6458,-2.6407,-2.6408,-2.642,-2.6482,-2.6483,-2.6521,-2.6528,-2.6554,0,-2.658,0,-2.6581,-2.6586,-2.6586,0,0,0,-2.6413,-2.6453,-2.6463,-2.6409,-2.642,-2.6482,-2.6452,-2.6525,-2.6532,-2.6562,-2.6581,-2.6585,-2.6582,-2.6586,-2.6587,-2.676,-2.6761,0,0,-2.6409,-2.6422,-2.6458,-2.6468,-2.6459,-2.645,-2.6454,-2.6529,-2.655,-2.6582,-2.6587,-2.6584,-2.6587,-2.6588,-2.6759,-2.6761,0,0,0,-2.6403,-2.642,-2.6428,-2.6464,-2.6475,-2.6452,-2.6457,-2.6547,-2.6548,-2.6587,-2.6585,-2.6588,-2.6589,-2.6758,-2.676,-2.6826,0,0,0,-2.6401,-2.6417,-2.6427,-2.6435,-2.6474,-2.6512,-2.6474,-2.6543,-2.6551,-2.6585,-2.6588,-2.659,-2.6757,-2.6759,-2.6821,-2.6855,0,0,0,-2.64,-2.6416,-2.6428,-2.6436,-2.6464,-2.651,-2.6516,-2.6545,-2.655,-2.6586,-2.659,-2.6756,-2.6759,-2.6817,-2.6848,-2.6903,0,0,0,-2.6402,-2.6487,-2.643,-2.6523,-2.6463,-2.6551,-2.6515,-2.658,-2.6618,-2.6588,-2.6757,-2.676,-2.6816,-2.6844,-2.6899,-2.6952,-2.6975,0,0,-2.6516,-2.6501,-2.6555,-2.6506,-2.6607,-2.654,-2.665,-2.6674,-2.6666,-2.6729,-2.6733,-2.6823,-2.6848,-2.6902,-2.7102,-2.7121,0,0,0,-2.6596,-2.6634,-2.6658,-2.6696,-2.6715,-2.6735,-2.674,-2.6748,-2.6801,-2.6701,-2.6858,-2.6872,-2.6904,-2.6928,-2.6944,-2.697,-2.6772,-2.6771,-2.6771,-2.6776,-2.676,-2.6848,-2.684,-2.6877,-2.6881,-2.6909,-2.6921,-2.6895,-2.6933,-2.6951,-2.7074,-2.7103,-2.7115,-2.7142,-2.6978,-2.6979,-2.6979,-2.6979,-2.6941,-2.6993,-2.6956,-2.7028,-2.7011,-2.7072,-2.7079,-2.7058,-2.7112,-2.7059,-2.7086,-2.7029,-2.7136,-2.7159,-2.6984,-2.6983,-2.6982,-2.6982,-2.6982,-2.7056,-2.7078,-2.7087,-2.7138,-2.718,-2.7169,-2.7222,-2.7205,-2.719,-2.7217,-2.7234,-2.7233,-2.7229,-2.7226,-2.7227,-2.7227,-2.7227,-2.7228,-2.7228,-2.7172,-2.718,-2.7226,-2.7254,-2.7275,-2.7301,-2.7306,-2.7326,-2.7344,-2.7328,-2.7328,-2.7298,-2.7149,-2.7112,-2.7235,-2.7233,-2.7233,-2.7232,-2.7231,-2.7344,-2.7302,-2.7374,-2.7396,-2.7426,-2.7468,-2.7445,-2.7488,-2.7503,-2.753,-2.7494,-2.7387,-2.7371,-2.7358,-2.7327,-2.7497,-2.7497,-2.7497,-2.7497,-2.7441,-2.7431,-2.75,-2.7535,-2.7567,-2.7554,-2.7635,-2.764,-2.7638,-2.7646,-2.7619,-2.7576,-2.7564,-2.7554,-2.7537,-2.7508,-2.7721,-2.7721,-2.7722,-2.7546,-2.7538,-2.761,-2.7607,-2.7629,-2.7649,-2.7725,-2.7766,-2.7755,-2.773,-2.7651,-2.7642,-2.7573,-2.7552,-2.7524,-2.7498,-2.7444,0,0]},{"header":{"parameterUnit":"m.s-1","parameterCategory":1,"la1":30.2992,"la2":30.254,"lo1":-89.0895,"lo2":-89.0443,"dy":0.0025,"dx":0.0025,"nx":19,"ny":19,"refTime":"2026-05-15T09:00:00:Z","depth":0,"parameterNumber":3,"parameterNumberName":"V-component_of_WINDS"},"data":[0,0,0,4.1655,4.1657,4.1738,4.1738,4.185,4.1851,0,0,0,0,0,0,0,0,0,0,0,4.1639,4.164,4.1655,4.1658,4.1738,4.1738,4.185,4.1851,0,0,0,0,0,0,0,0,0,0,0,4.1639,4.164,4.1641,4.1658,4.1738,4.1738,4.1849,4.1785,0,0,0,0,0,0,0,0,0,0,4.1705,4.1698,4.164,4.1641,4.1658,4.1738,4.1738,4.1782,4.1789,4.1818,0,4.1847,0,4.1851,4.1859,4.186,0,0,0,4.1651,4.1692,4.1707,4.1641,4.1659,4.1738,4.17,4.1786,4.1794,4.1828,4.1849,4.1853,4.1853,4.186,4.1861,4.205,4.2051,0,0,4.1647,4.1657,4.1702,4.1713,4.1703,4.1697,4.1703,4.1791,4.1814,4.1849,4.1855,4.1855,4.1861,4.1862,4.2049,4.205,0,0,0,4.1638,4.1654,4.1667,4.1709,4.1723,4.17,4.1706,4.181,4.1813,4.1856,4.1856,4.1862,4.1863,4.2048,4.205,4.2117,0,0,0,4.1635,4.1649,4.1665,4.1673,4.1721,4.1768,4.1723,4.1807,4.1817,4.1856,4.1862,4.1864,4.2046,4.2049,4.2112,4.2147,0,0,0,4.1631,4.1649,4.1663,4.1673,4.1708,4.1766,4.1774,4.1809,4.1817,4.186,4.1865,4.2046,4.2048,4.2108,4.214,4.2198,0,0,0,4.1629,4.1723,4.1665,4.1768,4.1708,4.1808,4.1774,4.1848,4.1893,4.1862,4.2047,4.2049,4.2107,4.2136,4.2194,4.2249,4.2273,0,0,4.1752,4.1738,4.1798,4.1748,4.1862,4.1795,4.1918,4.1948,4.1942,4.2014,4.2018,4.2114,4.2139,4.2197,4.2407,4.2427,0,0,0,4.184,4.1883,4.1911,4.1955,4.1981,4.2006,4.2017,4.2028,4.2088,4.1982,4.2151,4.2166,4.22,4.2225,4.2242,4.2269,4.2062,4.2062,4.2062,4.2029,4.2016,4.2114,4.2111,4.2154,4.2164,4.2196,4.2212,4.2187,4.2227,4.2248,4.2377,4.2408,4.242,4.2448,4.2277,4.2277,4.2278,4.2278,4.2206,4.2265,4.2229,4.2311,4.2296,4.2364,4.2376,4.2356,4.2416,4.2361,4.239,4.233,4.2441,4.2465,4.2283,4.2282,4.2281,4.2281,4.2281,4.2328,4.2353,4.2365,4.2426,4.2473,4.2467,4.2525,4.251,4.2496,4.2525,4.2544,4.2542,4.2538,4.2535,4.2536,4.2536,4.2536,4.2537,4.2537,4.2448,4.2459,4.2512,4.2546,4.2571,4.2602,4.2612,4.2635,4.2657,4.2641,4.2641,4.261,4.2456,4.2416,4.2544,4.2543,4.2542,4.2541,4.2541,4.2631,4.2586,4.2667,4.2692,4.273,4.2777,4.2757,4.2805,4.2822,4.2851,4.2815,4.2703,4.2687,4.2673,4.264,4.2819,4.2819,4.2819,4.2819,4.2732,4.2722,4.28,4.284,4.2878,4.2867,4.2956,4.2963,4.2964,4.2973,4.2945,4.2901,4.2888,4.2878,4.2861,4.283,4.3052,4.3052,4.3053,4.2842,4.2835,4.2915,4.2916,4.2944,4.2967,4.3049,4.3095,4.3087,4.3062,4.2979,4.2969,4.2897,4.2875,4.2847,4.282,4.2763,0,0]}]]